Location: Biharia
(46.4333°N, 22.8000°E)
Time: 04:19:09
(UTC+00:00)

Okean-O - Pass Details

Date: 28 May 2022
Orbit: 638 x 640 km, 98.1° (Epoch: 01 July)

Event Time Altitude Azimuth Distance (km) Brightness Sun altitude
Rises 19:31:16 0° 220° (SW) 2,934 5.9 -11.4°
Reaches altitude 10° 19:35:17 10° 257° (WSW) 2,033 5.6 -11.8°
Maximum altitude 19:36:27 11° 272° (W) 1,975 5.8 -11.9°
Drops below altitude 10° 19:37:37 10° 288° (WNW) 2,037 6.1 -12.1°
Sets 19:41:41 0° 325° (NW) 2,954 8.1 -12.5°
